Weather History for KBED - January, 2013

Change the Weather History Date:

Saturday, January 5, 2013

  Actual Average Record
Temperature  
Mean Temperature 28 °F -  
Max Temperature 39 °F 36 °F 62 °F (2007)
Min Temperature 17 °F 15 °F -8 °F (1981)
Degree Days  
Heating Degree Days 37    
Moisture  
Dew Point 19 °F    
Average Humidity 63    
Maximum Humidity 88    
Minimum Humidity 36    
Precipitation  
Precipitation 0.00 in - - ()
Sea Level Pressure  
Sea Level Pressure 30.13 in    
Wind  
Wind Speed 6 mph (West)    
Max Wind Speed 16 mph    
Max Gust Speed 28 mph    
Visibility 10 miles    
Events      
Averages and records for this station are not official NWS values.
T = Trace of Precipitation, MM = Missing Value Source: NWS Daily Summary

Daily Weather History Graph

Daily Weather History Graph

Search for Another Location

Airport or City:

Trip Planner

Search our weather history database for the weather conditions in past years. The results will help you decide how hot, cold, wet, or windy it might be!

Date:

Astronomy

Jan. 05, 2013 Rise Set
Actual Time 7:14 AM EST 4:26 PM EST
Civil Twilight 6:43 AM EST 4:58 PM EST
Nautical Twilight 6:07 AM EST 5:33 PM EST
Astronomical Twilight 5:33 AM EST 6:07 PM EST
Moon 12:13 AM EST (1/5) 11:18 AM EST (1/5)
Length of Visible Light 10h 15m
Length of Day
9h 12m
Last Quarter, 44% of the Moon is Illuminated
Jan 5
Last Quarter
Jan 11
New
Jan 18
First Quarter
Jan 26
Full
Feb 3
Last Quarter

Hourly Weather History & Observations

Time (EST) Temp. Windchill Dew Point Humidity Pressure Visibility Wind Dir Wind Speed Gust Speed Precip Events Conditions
12:56 AM 30.0 °F 26.5 °F 19.0 °F 64% 29.89 in 10.0 mi SW 3.5 mph - N/A   Overcast
1:56 AM 30.9 °F 25.2 °F 19.9 °F 64% 29.91 in 10.0 mi SW 5.8 mph - N/A   Overcast
2:56 AM 33.1 °F 26.9 °F 21.0 °F 61% 29.92 in 10.0 mi WSW 6.9 mph - N/A   Overcast
3:56 AM 32.0 °F 26.4 °F 21.0 °F 64% 29.94 in 10.0 mi SW 5.8 mph - N/A   Clear
4:56 AM 32.0 °F 25.6 °F 21.9 °F 66% 29.96 in 10.0 mi SW 6.9 mph - N/A   Overcast
5:56 AM 30.9 °F 24.3 °F 21.0 °F 67% 29.99 in 10.0 mi SW 6.9 mph - N/A   Clear
6:56 AM 32.0 °F 24.2 °F 21.9 °F 66% 30.03 in 10.0 mi WSW 9.2 mph - N/A   Partly Cloudy
7:56 AM 33.1 °F 26.1 °F 21.9 °F 64% 30.06 in 10.0 mi WSW 8.1 mph - N/A   Partly Cloudy
8:56 AM 35.6 °F 28.6 °F 23.0 °F 60% 30.06 in 10.0 mi WSW 9.2 mph - N/A   Clear
9:56 AM 37.0 °F 29.8 °F 23.0 °F 57% 30.15 in 10.0 mi West 10.4 mph 20.7 mph N/A   Mostly Cloudy
10:56 AM 39.0 °F 30.6 °F 21.9 °F 50% 30.15 in 10.0 mi WNW 15.0 mph 23.0 mph N/A   Scattered Clouds
11:56 AM 39.0 °F 32.3 °F 21.9 °F 50% 30.17 in 10.0 mi NW 10.4 mph - N/A   Mostly Cloudy
12:56 PM 39.9 °F 31.4 °F 18.0 °F 41% 30.17 in 10.0 mi West 16.1 mph 27.6 mph N/A   Clear
1:56 PM 39.0 °F 30.3 °F 16.0 °F 39% 30.17 in 10.0 mi WNW 16.1 mph 24.2 mph N/A   Clear
2:56 PM 39.0 °F 31.0 °F 18.0 °F 43% 30.19 in 10.0 mi WNW 13.8 mph 18.4 mph N/A   Clear
3:56 PM 37.9 °F 32.1 °F 12.9 °F 36% 30.21 in 10.0 mi NNW 8.1 mph - N/A   Clear
4:56 PM 33.1 °F - 15.1 °F 48% 30.25 in 10.0 mi Calm Calm - N/A   Clear
5:56 PM 27.0 °F - 17.1 °F 66% 30.27 in 10.0 mi Calm Calm - N/A   Clear
6:56 PM 24.1 °F - 18.0 °F 77% 30.30 in 10.0 mi Calm Calm - N/A   Clear
7:56 PM 19.9 °F - 15.1 °F 81% 30.29 in 10.0 mi Calm Calm - N/A   Clear
8:56 PM 19.9 °F - 16.0 °F 85% 30.28 in 10.0 mi Calm Calm - N/A   Clear
9:56 PM 17.1 °F - 12.9 °F 84% 30.28 in 10.0 mi Calm Calm - N/A   Clear
10:56 PM 19.9 °F - 16.0 °F 85% 30.28 in 10.0 mi Calm Calm - N/A   Clear
11:56 PM 19.0 °F - 16.0 °F 88% 30.25 in 10.0 mi Calm Calm - N/A   Clear